Location: Windsor
(43.2292°N, 89.3015°W)
Time: 21:48:06
(UTC+00:00)

MOZHAYETS 4 - Pass Details

Date: 05 July 2022
Orbit: 660 x 678 km, 98.2° (Epoch: 16 August)

Event Time Altitude Azimuth Distance (km) Brightness Sun altitude
Exits shadow 09:44:30 - 236° (SW) 2,281 9.8 -6.5°
Reaches altitude 10° 09:45:25 10° 246° (WSW) 2,106 9.7 -6.4°
Maximum altitude 09:47:19 12° 270° (W) 1,950 9.7 -6.1°
Drops below altitude 10° 09:49:14 10° 295° (WNW) 2,109 10.0 -5.9°
Sets 09:52:52 0° 325° (NW) 3,025 11.1 -5.4°
